Weather History for GMMZ - December, 2012

Change the Weather History Date:

Friday, December 21, 2012

  Actual Average Record
Temperature  
Mean Temperature 50 °F -  
Max Temperature 66 °F 62 °F - ()
Min Temperature 35 °F 35 °F - ()
Degree Days  
Heating Degree Days 14    
Moisture  
Dew Point 15 °F    
Average Humidity 22    
Maximum Humidity 44    
Minimum Humidity 6    
Precipitation  
Precipitation 0.00 in 0.02 in - ()
Sea Level Pressure  
Sea Level Pressure 30.33 in    
Wind  
Wind Speed 1 mph ()    
Max Wind Speed 4 mph    
Max Gust Speed -    
Visibility 12.0 miles    
Events      
T = Trace of Precipitation, MM = Missing Value Source: Averaged Metar Reports

Daily Weather History Graph

Daily Weather History Graph

Search for Another Location

Airport or City:

Trip Planner

Search our weather history database for the weather conditions in past years. The results will help you decide how hot, cold, wet, or windy it might be!

Date:

Astronomy

Dec. 21, 2012 Rise Set
Actual Time 7:21 AM WET 5:30 PM WET
Civil Twilight 6:55 AM WET 5:56 PM WET
Nautical Twilight 6:24 AM WET 6:27 PM WET
Astronomical Twilight 5:55 AM WET 6:56 PM WET
Moon 12:54 PM WET (12/21) 1:12 AM WET (12/21)
Length of Visible Light 11h 01m
Length of Day
10h 08m
Waxing Gibbous, 62% of the Moon is Illuminated
Dec 21
Waxing Gibbous
Dec 28
Full
Jan 5
Last Quarter
Jan 11
New
Jan 18
First Quarter

Hourly Weather History & Observations

Time (WET) Temp. Dew Point Humidity Pressure Visibility Wind Dir Wind Speed Gust Speed Precip Events Conditions
12:00 AM 44 °F 13 °F 16%  in 12 mi WNW 1.2 mph - -  
12:00 AM 44.6 °F 14.0 °F 29% 30.33 in - WNW 1.2 mph - N/A   Clear
1:00 AM 48.2 °F 15.8 °F 27% 30.30 in - Calm Calm - N/A   Clear
2:00 AM 42.8 °F 12.2 °F 29% 30.30 in - Calm Calm - N/A   Clear
3:00 AM 46 °F 13 °F 15%  in 12 mi Calm Calm - -  
3:00 AM 46.4 °F 14.0 °F 27% 30.30 in - Calm Calm - N/A   Clear
4:00 AM 37.4 °F 12.2 °F 36% 30.30 in - Calm Calm - N/A   Clear
5:00 AM 35.6 °F 15.8 °F 44% 30.30 in - Calm Calm - N/A   Clear
6:00 AM 36 °F 11 °F 21%  in 12 mi Calm Calm - -  
6:00 AM 35.6 °F 10.4 °F 35% 30.30 in - Calm Calm - N/A   Clear
7:00 AM 39.2 °F 12.2 °F 33% 30.33 in - Calm Calm - N/A   Clear
8:00 AM 35.6 °F 10.4 °F 35% 30.36 in - West 2.3 mph - N/A   Clear
9:00 AM 40 °F 12 °F 19%  in 12 mi WSW 1.2 mph - -   Clear
9:00 AM 41.0 °F 12.2 °F 31% 30.36 in - Variable 1.2 mph - N/A   Clear
10:00 AM 48.2 °F 15.8 °F 27% 30.39 in - Calm Calm - N/A   Clear
11:00 AM 55.4 °F 17.6 °F 23% 30.39 in - Calm Calm - N/A   Clear
12:00 PM 59 °F 17 °F 10%  in 12 mi Calm Calm - -   Clear
12:00 PM 59.0 °F 17.6 °F 20% 30.36 in - Calm Calm - N/A   Clear
1:00 PM 62.6 °F 15.8 °F 16% 30.33 in - Calm Calm - N/A   Clear
2:00 PM 64.4 °F 14.0 °F 14% 30.30 in - Calm Calm - N/A   Clear
3:00 PM 65 °F 15 °F 6%  in 12 mi Calm Calm - -   Clear
3:00 PM 66.2 °F 15.8 °F 14% 30.30 in - Calm Calm - N/A   Clear
4:00 PM 66.2 °F 15.8 °F 14% 30.30 in - Calm Calm - N/A   Clear
5:00 PM 64.4 °F 15.8 °F 15% 30.30 in - Calm Calm - N/A   Clear
6:00 PM 63 °F 17 °F 8%  in 12 mi South 1.2 mph - -   Clear
6:00 PM 62.6 °F 17.6 °F 18% 30.30 in - Variable 1.2 mph - N/A   Clear
7:00 PM 59.0 °F 17.6 °F 20% 30.33 in - Calm Calm - N/A   Clear
8:00 PM 57.2 °F 15.8 °F 20% 30.33 in - Variable 2.3 mph - N/A   Clear
9:00 PM 56 °F 17 °F 11%  in 12 mi WSW 3.5 mph - -   Clear
9:00 PM 57.2 °F 17.6 °F 21% 30.33 in - Variable 3.5 mph - N/A   Clear
10:00 PM 48.2 °F 14.0 °F 25% 30.33 in - Variable 3.5 mph - N/A   Clear
11:00 PM 48.2 °F 14.0 °F 25% 30.36 in - Variable 1.2 mph - N/A   Clear